QPF
0.00 0.00 0.00 0.00 0.00 0.00 0.00 0.01 0.01 0.00 0.00 0.00 0.00 0.00 0.00 0.00 0.00 0.00 0.00 0.00 0.00 0.01 0.03 0.05 0.08 0.09 0.07 0.03 0.01 0.00 0.00 0.01 0.01 0.03 0.04 0.05 0.06 0.05 0.03 0.02 0.02 0.03 0.11 0.25
0.00 0.00 0.00 0.00 0.00 0.00 0.00 0.00 0.00 0.00 0.00 0.00 0.00 0.00 0.00 0.00 0.00 0.00 0.00 0.00 0.00 0.00 0.01 0.02 0.04 0.06 0.07 0.05 0.02 0.01 0.02 0.02 0.03 0.05 0.09 0.11 0.11 0.09 0.08 0.06 0.04 0.04 0.09 0.19
0.00 0.00 0.00 0.00 0.00 0.00 0.00 0.00 0.00 0.00 0.00 0.00 0.00 0.00 0.00 0.00 0.00 0.00 0.00 0.00 0.00 0.00 0.00 0.01 0.01 0.03 0.04 0.04 0.03 0.02 0.02 0.03 0.07 0.14 0.21 0.23 0.18 0.17 0.14 0.12 0.10 0.10 0.09 0.11
0.00 0.00 0.00 0.00 0.00 0.00 0.00 0.00 0.00 0.00 0.00 0.00 0.00 0.00 0.00 0.00 0.00 0.00 0.00 0.00 0.00 0.00 0.00 0.00 0.01 0.01 0.02 0.03 0.02 0.02 0.03 0.07 0.18 0.30 0.38 0.40 0.39 0.32 0.25 0.19 0.17 0.14 0.12 0.10
0.00 0.00 0.00 0.00 0.00 0.00 0.00 0.00 0.00 0.00 0.00 0.00 0.00 0.00 0.00 0.00 0.00 0.00 0.00 0.00 0.00 0.00 0.00 0.00 0.00 0.01 0.01 0.01 0.02 0.03 0.08 0.18 0.35 0.51 0.59 0.60 0.49 0.38 0.27 0.19 0.16 0.13 0.10 0.08
0.00 0.00 0.00 0.00 0.00 0.00 0.00 0.00 0.00 0.00 0.01 0.00 0.00 0.00 0.01 0.01 0.00 0.00 0.00 0.00 0.00 0.00 0.01 0.01 0.01 0.02 0.02 0.02 0.03 0.08 0.19 0.33 0.50 0.67 0.71 0.67 0.54 0.41 0.30 0.20 0.13 0.09 0.07 0.06
0.00 0.00 0.00 0.00 0.00 0.00 0.00 0.00 0.00 0.00 0.01 0.01 0.01 0.02 0.02 0.01 0.00 0.00 0.00 0.00 0.01 0.01 0.02 0.01 0.02 0.03 0.05 0.08 0.12 0.20 0.30 0.43 0.59 0.71 0.71 0.65 0.54 0.41 0.30 0.21 0.14 0.09 0.06 0.06
0.00 0.00 0.00 0.00 0.00 0.00 0.00 0.00 0.01 0.02 0.02 0.03 0.04 0.05 0.03 0.01 0.01 0.00 0.01 0.01 0.02 0.02 0.02 0.03 0.04 0.04 0.07 0.12 0.17 0.22 0.33 0.49 0.61 0.67 0.65 0.56 0.47 0.39 0.29 0.20 0.14 0.09 0.06 0.05
0.00 0.00 0.00 0.00 0.00 0.00 0.00 0.01 0.03 0.05 0.03 0.03 0.06 0.08 0.05 0.02 0.01 0.01 0.02 0.02 0.03 0.02 0.02 0.03 0.05 0.06 0.08 0.11 0.19 0.26 0.34 0.47 0.55 0.55 0.52 0.47 0.42 0.36 0.27 0.19 0.13 0.08 0.04 0.02
0.00 0.00 0.00 0.00 0.00 0.00 0.00 0.01 0.03 0.06 0.06 0.06 0.09 0.09 0.07 0.04 0.03 0.03 0.03 0.03 0.05 0.04 0.04 0.06 0.09 0.08 0.09 0.12 0.19 0.29 0.34 0.38 0.45 0.49 0.48 0.45 0.41 0.35 0.27 0.19 0.13 0.08 0.03 0.01
0.00 0.00 0.00 0.00 0.01 0.01 0.02 0.04 0.04 0.06 0.07 0.10 0.15 0.17 0.15 0.15 0.13 0.11 0.10 0.11 0.15 0.18 0.13 0.11 0.12 0.11 0.12 0.14 0.18 0.25 0.31 0.33 0.35 0.39 0.39 0.38 0.34 0.28 0.22 0.17 0.12 0.07 0.03 0.01
0.00 0.00 0.00 0.00 0.00 0.01 0.04 0.07 0.07 0.12 0.11 0.11 0.19 0.23 0.22 0.22 0.19 0.20 0.23 0.30 0.38 0.29 0.22 0.18 0.14 0.12 0.12 0.15 0.18 0.20 0.22 0.24 0.27 0.32 0.34 0.33 0.27 0.21 0.19 0.15 0.09 0.05 0.03 0.01
0.00 0.00 0.00 0.00 0.01 0.02 0.06 0.08 0.06 0.07 0.11 0.16 0.22 0.20 0.17 0.14 0.17 0.22 0.26 0.30 0.31 0.30 0.33 0.31 0.25 0.20 0.15 0.15 0.17 0.17 0.19 0.20 0.22 0.26 0.26 0.23 0.22 0.19 0.17 0.12 0.07 0.04 0.02 0.01
0.00 0.00 0.00 0.01 0.02 0.02 0.03 0.04 0.05 0.07 0.11 0.12 0.15 0.15 0.11 0.10 0.15 0.17 0.18 0.20 0.22 0.26 0.27 0.26 0.26 0.22 0.19 0.17 0.16 0.16 0.20 0.21 0.22 0.23 0.21 0.18 0.15 0.15 0.13 0.08 0.05 0.04 0.03 0.03
0.00 0.00 0.00 0.00 0.01 0.01 0.01 0.01 0.02 0.03 0.05 0.09 0.11 0.13 0.15 0.19 0.21 0.18 0.14 0.11 0.12 0.12 0.11 0.12 0.12 0.13 0.13 0.11 0.10 0.11 0.14 0.17 0.19 0.20 0.19 0.15 0.12 0.12 0.09 0.06 0.05 0.05 0.04 0.04
0.00 0.00 0.00 0.00 0.00 0.00 0.00 0.00 0.00 0.01 0.03 0.05 0.07 0.11 0.16 0.19 0.18 0.13 0.10 0.07 0.06 0.05 0.05 0.04 0.04 0.04 0.04 0.03 0.03 0.04 0.06 0.09 0.11 0.10 0.10 0.09 0.07 0.07 0.06 0.05 0.04 0.04 0.04 0.03
0.00 0.00 0.00 0.00 0.00 0.00 0.00 0.00 0.01 0.02 0.03 0.05 0.09 0.15 0.19 0.20 0.16 0.08 0.04 0.02 0.01 0.00 0.00 0.01 0.01 0.01 0.00 0.00 0.00 0.00 0.01 0.02 0.03 0.03 0.03 0.03 0.03 0.02 0.02 0.02 0.02 0.02 0.03 0.03
0.00 0.00 0.00 0.00 0.00 0.00 0.00 0.00 0.00 0.02 0.04 0.06 0.08 0.09 0.07 0.05 0.03 0.02 0.01 0.00 0.00 0.00 0.00 0.00 0.00 0.00 0.00 0.00 0.00 0.00 0.00 0.00 0.00 0.00 0.00 0.00 0.00 0.00 0.00 0.00 0.00 0.01 0.01 0.01
0.00 0.00 0.00 0.00 0.00 0.00 0.00 0.00 0.00 0.01 0.02 0.03 0.03 0.03 0.01 0.01 0.01 0.00 0.00 0.00 0.01 0.00 0.00 0.00 0.00 0.00 0.00 0.00 0.00 0.00 0.00 0.00 0.00 0.00 0.00 0.00 0.00 0.00 0.00 0.00 0.00 0.00 0.00 0.00
0.00 0.00 0.00 0.00 0.00 0.00 0.00 0.00 0.00 0.00 0.00 0.00 0.01 0.01 0.01 0.00 0.01 0.00 0.00 0.00 0.00 0.00 0.00 0.00 0.00 0.00 0.00 0.00 0.00 0.00 0.00 0.00 0.00 0.00 0.00 0.00 0.00 0.00 0.00 0.00 0.00 0.00 0.00 0.00
0.00 0.00 0.00 0.00 0.00 0.00 0.00 0.00 0.00 0.00 0.00 0.00 0.00 0.00 0.00 0.00 0.00 0.00 0.00 0.00 0.00 0.00 0.00 0.00 0.00 0.00 0.00 0.00 0.00 0.00 0.00 0.00 0.00 0.00 0.00 0.00 0.00 0.00 0.00 0.00 0.00 0.00 0.00 0.00
0.00 0.00 0.00 0.00 0.00 0.00 0.00 0.00 0.00 0.00 0.00 0.00 0.00 0.00 0.00 0.00 0.00 0.00 0.00 0.00 0.00 0.00 0.00 0.00 0.00 0.00 0.00 0.00 0.00 0.00 0.00 0.00 0.00 0.00 0.00 0.00 0.00 0.00 0.00 0.00 0.00 0.00 0.00 0.00
0.00 0.00 0.00 0.00 0.00 0.00 0.00 0.00 0.00 0.00 0.00 0.00 0.00 0.00 0.00 0.00 0.00 0.00 0.00 0.00 0.00 0.00 0.00 0.00 0.00 0.00 0.00 0.00 0.00 0.00 0.00 0.00 0.00 0.00 0.00 0.00 0.00 0.00 0.00 0.00 0.00 0.00 0.00 0.00
0.00 0.00 0.00 0.00 0.00 0.00 0.00 0.00 0.00 0.00 0.00 0.00 0.00 0.00 0.00 0.00 0.00 0.00 0.00 0.00 0.00 0.00 0.00 0.00 0.00 0.00 0.00 0.00 0.00 0.00 0.00 0.00 0.00 0.00 0.00 0.00 0.00 0.00 0.00 0.00 0.00 0.00 0.00 0.00
0.00 0.00 0.00 0.00 0.00 0.00 0.00 0.00 0.00 0.00 0.00 0.00 0.00 0.00 0.00 0.00 0.00 0.00 0.00 0.00 0.00 0.00 0.00 0.00 0.00 0.00 0.00 0.00 0.00 0.00 0.00 0.00 0.00 0.00 0.00 0.00 0.00 0.00 0.00 0.00 0.00 0.00 0.00 0.00
0.00 0.00 0.00 0.00 0.00 0.00 0.00 0.00 0.00 0.00 0.00 0.00 0.00 0.00 0.00 0.00 0.00 0.00 0.00 0.00 0.00 0.00 0.00 0.00 0.00 0.00 0.00 0.00 0.00 0.00 0.00 0.00 0.00 0.00 0.00 0.00 0.00 0.00 0.00 0.00 0.00 0.00 0.00 0.00
MSLP
1012.99 1013.64 1014.18 1014.54 1014.70 1014.69 1014.54 1014.32 1014.11 1013.95 1013.87 1013.89 1013.97 1014.08 1014.16 1014.17 1014.08 1013.88 1013.56 1013.14 1012.66 1012.13 1011.59 1011.05 1010.54 1010.06 1009.64 1009.31 1009.09 1008.99 1009.05 1009.26 1009.61 1010.07 1010.60 1011.15 1011.68 1012.15 1012.54 1012.83 1013.06 1013.23 1013.39 1013.55
1013.92 1014.56 1015.05 1015.34 1015.42 1015.32 1015.09 1014.79 1014.52 1014.31 1014.21 1014.21 1014.30 1014.42 1014.52 1014.56 1014.50 1014.32 1014.02 1013.62 1013.13 1012.57 1011.98 1011.36 1010.75 1010.15 1009.61 1009.14 1008.78 1008.57 1008.54 1008.70 1009.02 1009.48 1010.05 1010.66 1011.26 1011.81 1012.26 1012.62 1012.89 1013.09 1013.25 1013.40
1014.86 1015.46 1015.89 1016.11 1016.11 1015.93 1015.62 1015.27 1014.94 1014.70 1014.57 1014.55 1014.62 1014.74 1014.84 1014.89 1014.83 1014.66 1014.37 1013.96 1013.47 1012.89 1012.26 1011.58 1010.89 1010.21 1009.56 1008.99 1008.54 1008.25 1008.15 1008.26 1008.56 1009.03 1009.63 1010.28 1010.94 1011.54 1012.05 1012.45 1012.74 1012.96 1013.12 1013.26
1015.76 1016.31 1016.67 1016.82 1016.75 1016.51 1016.16 1015.76 1015.40 1015.14 1014.99 1014.95 1015.00 1015.09 1015.18 1015.20 1015.12 1014.94 1014.63 1014.22 1013.70 1013.11 1012.45 1011.74 1011.00 1010.26 1009.56 1008.94 1008.43 1008.10 1007.96 1008.05 1008.35 1008.82 1009.43 1010.10 1010.78 1011.41 1011.94 1012.36 1012.67 1012.88 1013.03 1013.15
1016.62 1017.10 1017.39 1017.47 1017.35 1017.08 1016.70 1016.29 1015.93 1015.66 1015.51 1015.45 1015.48 1015.53 1015.57 1015.54 1015.43 1015.20 1014.86 1014.42 1013.89 1013.28 1012.61 1011.89 1011.14 1010.39 1009.68 1009.05 1008.53 1008.19 1008.05 1008.14 1008.43 1008.90 1009.50 1010.17 1010.84 1011.46 1011.97 1012.37 1012.66 1012.85 1012.97 1013.07
1017.44 1017.83 1018.05 1018.08 1017.93 1017.64 1017.27 1016.88 1016.55 1016.30 1016.15 1016.09 1016.08 1016.09 1016.06 1015.97 1015.79 1015.51 1015.12 1014.65 1014.09 1013.48 1012.81 1012.10 1011.38 1010.66 1009.98 1009.37 1008.89 1008.57 1008.45 1008.54 1008.82 1009.27 1009.85 1010.47 1011.10 1011.66 1012.12 1012.47 1012.71 1012.85 1012.94 1013.00
1018.21 1018.52 1018.67 1018.65 1018.49 1018.21 1017.88 1017.55 1017.27 1017.06 1016.93 1016.86 1016.83 1016.78 1016.68 1016.51 1016.25 1015.90 1015.45 1014.94 1014.37 1013.76 1013.11 1012.44 1011.76 1011.10 1010.48 1009.93 1009.50 1009.22 1009.12 1009.21 1009.48 1009.89 1010.40 1010.95 1011.49 1011.97 1012.34 1012.61 1012.78 1012.86 1012.90 1012.93
1018.92 1019.15 1019.24 1019.21 1019.05 1018.82 1018.56 1018.31 1018.10 1017.95 1017.85 1017.79 1017.72 1017.61 1017.44 1017.18 1016.83 1016.40 1015.89 1015.34 1014.76 1014.15 1013.53 1012.92 1012.30 1011.71 1011.16 1010.69 1010.32 1010.07 1009.99 1010.07 1010.29 1010.64 1011.06 1011.51 1011.93 1012.29 1012.56 1012.73 1012.81 1012.84 1012.83 1012.84
1019.55 1019.72 1019.78 1019.74 1019.63 1019.47 1019.30 1019.15 1019.03 1018.95 1018.90 1018.83 1018.73 1018.57 1018.31 1017.96 1017.52 1017.01 1016.44 1015.85 1015.25 1014.66 1014.08 1013.52 1012.97 1012.45 1011.98 1011.57 1011.24 1011.03 1010.94 1010.99 1011.15 1011.41 1011.72 1012.04 1012.33 1012.56 1012.71 1012.79 1012.79 1012.76 1012.72 1012.71
1020.08 1020.21 1020.26 1020.25 1020.20 1020.13 1020.07 1020.04 1020.03 1020.03 1020.02 1019.97 1019.84 1019.61 1019.28 1018.83 1018.30 1017.71 1017.09 1016.46 1015.85 1015.26 1014.71 1014.20 1013.71 1013.25 1012.83 1012.47 1012.17 1011.96 1011.86 1011.85 1011.93 1012.09 1012.28 1012.47 1012.63 1012.74 1012.78 1012.76 1012.70 1012.63 1012.58 1012.56
1020.50 1020.60 1020.67 1020.71 1020.74 1020.78 1020.85 1020.94 1021.04 1021.13 1021.16 1021.12 1020.97 1020.68 1020.28 1019.75 1019.13 1018.47 1017.79 1017.12 1016.49 1015.91 1015.38 1014.89 1014.44 1014.02 1013.64 1013.30 1013.01 1012.78 1012.64 1012.57 1012.56 1012.61 1012.68 1012.75 1012.80 1012.80 1012.76 1012.68 1012.58 1012.49 1012.43 1012.43
1020.79 1020.90 1021.00 1021.10 1021.23 1021.39 1021.58 1021.79 1022.00 1022.16 1022.25 1022.22 1022.04 1021.72 1021.24 1020.64 1019.96 1019.23 1018.49 1017.79 1017.14 1016.54 1016.01 1015.54 1015.11 1014.71 1014.33 1013.99 1013.69 1013.44 1013.25 1013.11 1013.02 1012.98 1012.95 1012.92 1012.87 1012.80 1012.70 1012.59 1012.47 1012.38 1012.33 1012.35
1020.99 1021.11 1021.25 1021.42 1021.64 1021.91 1022.21 1022.53 1022.84 1023.07 1023.20 1023.18 1022.99 1022.63 1022.11 1021.45 1020.71 1019.92 1019.15 1018.40 1017.73 1017.12 1016.58 1016.10 1015.67 1015.26 1014.89 1014.54 1014.22 1013.94 1013.70 1013.50 1013.35 1013.23 1013.13 1013.03 1012.93 1012.82 1012.69 1012.56 1012.45 1012.37 1012.34 1012.37
1021.11 1021.26 1021.44 1021.67 1021.96 1022.31 1022.71 1023.11 1023.48 1023.77 1023.93 1023.92 1023.73 1023.35 1022.79 1022.10 1021.33 1020.51 1019.70 1018.93 1018.23 1017.60 1017.05 1016.56 1016.11 1015.70 1015.31 1014.95 1014.61 1014.31 1014.04 1013.81 1013.62 1013.46 1013.31 1013.18 1013.05 1012.92 1012.79 1012.67 1012.57 1012.50 1012.48 1012.52
1021.22 1021.37 1021.58 1021.85 1022.18 1022.59 1023.04 1023.49 1023.90 1024.22 1024.40 1024.40 1024.20 1023.82 1023.26 1022.56 1021.77 1020.94 1020.12 1019.35 1018.63 1017.99 1017.42 1016.91 1016.45 1016.03 1015.64 1015.27 1014.93 1014.62 1014.35 1014.11 1013.90 1013.73 1013.57 1013.43 1013.29 1013.16 1013.04 1012.93 1012.85 1012.79 1012.78 1012.80
1021.34 1021.49 1021.70 1021.97 1022.32 1022.74 1023.19 1023.66 1024.07 1024.39 1024.57 1024.57 1024.39 1024.01 1023.46 1022.78 1022.02 1021.21 1020.40 1019.63 1018.92 1018.28 1017.71 1017.19 1016.73 1016.31 1015.92 1015.56 1015.23 1014.94 1014.68 1014.46 1014.26 1014.10 1013.95 1013.82 1013.69 1013.57 1013.46 1013.36 1013.28 1013.23 1013.20 1013.19
1021.49 1021.62 1021.81 1022.06 1022.38 1022.77 1023.19 1023.62 1024.01 1024.30 1024.47 1024.47 1024.29 1023.94 1023.43 1022.79 1022.07 1021.30 1020.54 1019.80 1019.12 1018.49 1017.93 1017.42 1016.96 1016.55 1016.18 1015.85 1015.55 1015.29 1015.07 1014.88 1014.71 1014.57 1014.45 1014.33 1014.22 1014.11 1014.01 1013.91 1013.83 1013.76 1013.70 1013.66
1021.65 1021.76 1021.91 1022.11 1022.37 1022.70 1023.06 1023.42 1023.75 1024.01 1024.14 1024.13 1023.97 1023.65 1023.19 1022.61 1021.96 1021.26 1020.56 1019.88 1019.23 1018.63 1018.09 1017.61 1017.17 1016.79 1016.44 1016.15 1015.89 1015.67 1015.50 1015.35 1015.23 1015.12 1015.02 1014.93 1014.83 1014.73 1014.62 1014.52 1014.43 1014.34 1014.25 1014.16
1021.79 1021.86 1021.96 1022.11 1022.30 1022.55 1022.83 1023.11 1023.37 1023.57 1023.67 1023.65 1023.50 1023.22 1022.82 1022.31 1021.74 1021.13 1020.50 1019.88 1019.29 1018.74 1018.23 1017.77 1017.36 1017.00 1016.70 1016.44 1016.22 1016.05 1015.92 1015.82 1015.74 1015.66 1015.59 1015.51 1015.42 1015.32 1015.22 1015.11 1015.00 1014.89 1014.77 1014.65
1021.84 1021.89 1021.95 1022.04 1022.17 1022.34 1022.54 1022.75 1022.94 1023.08 1023.15 1023.12 1022.99 1022.74 1022.40 1021.98 1021.49 1020.96 1020.41 1019.86 1019.32 1018.81 1018.34 1017.91 1017.53 1017.19 1016.91 1016.68 1016.51 1016.38 1016.28 1016.22 1016.17 1016.12 1016.07 1016.00 1015.92 1015.83 1015.73 1015.62 1015.50 1015.38 1015.25 1015.11
1021.76 1021.79 1021.83 1021.89 1021.97 1022.09 1022.23 1022.37 1022.50 1022.60 1022.65 1022.61 1022.50 1022.30 1022.02 1021.66 1021.25 1020.80 1020.32 1019.83 1019.35 1018.88 1018.43 1018.02 1017.65 1017.33 1017.07 1016.86 1016.70 1016.60 1016.53 1016.49 1016.46 1016.44 1016.40 1016.36 1016.29 1016.21 1016.12 1016.02 1015.91 1015.80 1015.68 1015.54
1021.52 1021.55 1021.58 1021.63 1021.69 1021.78 1021.89 1022.00 1022.10 1022.18 1022.21 1022.19 1022.10 1021.94 1021.71 1021.42 1021.07 1020.69 1020.27 1019.83 1019.38 1018.93 1018.50 1018.10 1017.73 1017.42 1017.15 1016.95 1016.80 1016.70 1016.64 1016.62 1016.61 1016.60 1016.58 1016.55 1016.51 1016.45 1016.38 1016.31 1016.23 1016.15 1016.05 1015.93
1021.12 1021.16 1021.20 1021.26 1021.33 1021.43 1021.53 1021.65 1021.75 1021.83 1021.87 1021.87 1021.81 1021.69 1021.50 1021.26 1020.97 1020.63 1020.26 1019.85 1019.43 1019.00 1018.57 1018.16 1017.79 1017.45 1017.18 1016.96 1016.80 1016.69 1016.64 1016.62 1016.61 1016.62 1016.62 1016.62 1016.60 1016.58 1016.55 1016.52 1016.49 1016.45 1016.40 1016.32
1020.60 1020.64 1020.71 1020.79 1020.89 1021.02 1021.16 1021.30 1021.43 1021.54 1021.61 1021.64 1021.61 1021.53 1021.39 1021.19 1020.94 1020.64 1020.29 1019.91 1019.50 1019.07 1018.64 1018.21 1017.82 1017.47 1017.16 1016.92 1016.74 1016.63 1016.56 1016.53 1016.54 1016.56 1016.58 1016.61 1016.63 1016.65 1016.68 1016.70 1016.72 1016.74 1016.74 1016.71
1020.00 1020.05 1020.13 1020.25 1020.40 1020.57 1020.76 1020.95 1021.13 1021.28 1021.40 1021.46 1021.48 1021.43 1021.33 1021.16 1020.95 1020.67 1020.35 1019.98 1019.58 1019.15 1018.71 1018.28 1017.86 1017.48 1017.15 1016.89 1016.68 1016.54 1016.46 1016.43 1016.44 1016.48 1016.52 1016.59 1016.65 1016.72 1016.80 1016.87 1016.95 1017.02 1017.08 1017.09
1019.39 1019.42 1019.52 1019.66 1019.86 1020.09 1020.34 1020.59 1020.83 1021.03 1021.20 1021.31 1021.36 1021.35 1021.28 1021.15 1020.96 1020.71 1020.41 1020.06 1019.66 1019.24 1018.80 1018.35 1017.92 1017.53 1017.18 1016.89 1016.66 1016.50 1016.41 1016.38 1016.39 1016.44 1016.51 1016.60 1016.71 1016.82 1016.94 1017.07 1017.20 1017.32 1017.41 1017.47
Thickness
5764 5757 5744 5744 5747 5745 5742 5738 5735 5740 5746 5742 5739 5735 5735 5738 5740 5742 5746 5751 5756 5760 5768 5774 5778 5782 5785 5788 5790 5790 5787 5784 5780 5774 5767 5762 5759 5759 5758 5756 5754 5752 5750 5748
5751 5736 5737 5740 5738 5735 5730 5723 5723 5727 5731 5729 5727 5726 5726 5725 5725 5727 5731 5737 5743 5748 5756 5762 5768 5774 5778 5781 5784 5786 5786 5782 5779 5773 5768 5763 5759 5755 5753 5751 5748 5747 5746 5744
5731 5725 5732 5728 5721 5718 5713 5707 5705 5706 5714 5718 5714 5712 5714 5716 5718 5718 5721 5726 5732 5735 5741 5749 5756 5763 5769 5773 5778 5781 5783 5780 5776 5770 5764 5759 5752 5748 5744 5742 5742 5742 5742 5741
5723 5720 5718 5711 5701 5698 5696 5697 5693 5693 5693 5699 5702 5695 5706 5705 5705 5706 5709 5715 5720 5725 5730 5736 5742 5749 5757 5765 5772 5775 5777 5775 5771 5765 5758 5752 5744 5738 5737 5737 5736 5737 5736 5736
5706 5703 5698 5688 5682 5680 5678 5682 5682 5682 5682 5684 5692 5684 5696 5694 5687 5690 5695 5702 5708 5715 5720 5725 5731 5737 5745 5753 5760 5765 5767 5765 5761 5756 5751 5745 5737 5732 5730 5729 5728 5730 5732 5732
5698 5695 5684 5674 5674 5668 5667 5669 5672 5671 5669 5662 5683 5679 5672 5665 5665 5673 5682 5690 5697 5704 5710 5714 5720 5726 5731 5738 5745 5750 5751 5751 5750 5746 5741 5737 5729 5723 5719 5718 5718 5720 5723 5724
5686 5678 5673 5667 5657 5655 5649 5641 5642 5644 5647 5655 5672 5664 5640 5646 5654 5660 5667 5677 5686 5693 5698 5703 5707 5712 5716 5720 5726 5732 5735 5734 5734 5733 5729 5726 5720 5715 5711 5709 5709 5710 5713 5716
5671 5662 5655 5651 5639 5629 5629 5623 5611 5611 5625 5637 5647 5637 5623 5638 5646 5653 5660 5667 5675 5681 5687 5691 5695 5698 5701 5705 5710 5715 5717 5718 5718 5718 5718 5716 5712 5708 5703 5702 5701 5703 5707 5710
5665 5654 5651 5642 5635 5625 5615 5612 5610 5603 5613 5618 5630 5622 5621 5632 5636 5640 5647 5654 5661 5668 5675 5680 5684 5687 5689 5691 5696 5700 5701 5703 5704 5705 5705 5704 5702 5699 5696 5695 5694 5697 5700 5703
5666 5651 5644 5638 5633 5621 5608 5602 5600 5596 5595 5603 5613 5608 5599 5610 5614 5624 5632 5639 5648 5657 5664 5669 5672 5675 5677 5680 5683 5686 5688 5690 5692 5693 5693 5693 5691 5689 5687 5686 5686 5689 5694 5697
5665 5652 5641 5632 5614 5601 5598 5595 5594 5596 5596 5592 5592 5588 5592 5596 5603 5611 5620 5629 5638 5647 5653 5658 5662 5664 5667 5670 5673 5675 5676 5678 5680 5682 5682 5681 5680 5679 5678 5679 5683 5687 5691 5693
5658 5654 5640 5626 5618 5612 5600 5593 5592 5588 5590 5594 5587 5583 5592 5596 5601 5607 5613 5622 5629 5637 5643 5648 5652 5656 5658 5661 5665 5666 5667 5669 5671 5673 5673 5673 5672 5673 5674 5677 5682 5686 5687 5690
5658 5650 5641 5632 5621 5613 5603 5601 5601 5597 5593 5588 5584 5583 5595 5597 5601 5604 5609 5616 5623 5630 5635 5639 5644 5647 5651 5654 5658 5660 5662 5664 5666 5667 5668 5668 5669 5671 5674 5677 5681 5683 5685 5686
5659 5648 5637 5619 5608 5604 5601 5601 5604 5601 5591 5588 5585 5586 5591 5594 5597 5602 5607 5613 5620 5625 5630 5634 5638 5641 5645 5649 5652 5655 5657 5660 5663 5665 5666 5667 5669 5671 5674 5676 5678 5680 5682 5681
5662 5646 5635 5625 5618 5613 5607 5602 5602 5599 5592 5588 5586 5587 5586 5589 5593 5600 5607 5613 5619 5624 5629 5632 5635 5639 5643 5646 5650 5653 5655 5659 5661 5663 5664 5665 5668 5670 5671 5672 5674 5675 5676 5677
5658 5647 5638 5626 5622 5618 5612 5607 5603 5598 5594 5594 5595 5590 5590 5594 5601 5607 5611 5615 5620 5624 5628 5631 5635 5639 5642 5646 5649 5651 5654 5657 5659 5660 5660 5662 5664 5665 5666 5667 5668 5668 5668 5669
5655 5649 5641 5635 5626 5621 5615 5607 5602 5598 5596 5594 5592 5589 5595 5599 5605 5610 5614 5619 5623 5626 5629 5632 5636 5639 5642 5645 5648 5649 5652 5654 5656 5656 5657 5658 5659 5659 5660 5660 5660 5659 5660 5660
5656 5650 5644 5638 5631 5620 5616 5616 5608 5603 5602 5600 5598 5601 5604 5608 5614 5619 5621 5623 5626 5629 5632 5636 5640 5641 5645 5647 5649 5650 5651 5652 5652 5652 5653 5653 5653 5653 5653 5653 5652 5652 5653 5650
5658 5650 5644 5641 5636 5624 5621 5620 5615 5612 5612 5611 5609 5611 5616 5621 5628 5630 5630 5629 5630 5633 5636 5640 5642 5645 5647 5647 5648 5651 5650 5649 5648 5647 5647 5647 5647 5646 5646 5645 5644 5643 5642 5640
5657 5653 5649 5641 5640 5633 5631 5629 5625 5620 5622 5623 5619 5619 5622 5630 5632 5628 5630 5632 5635 5637 5640 5642 5645 5647 5648 5647 5648 5649 5647 5646 5643 5642 5642 5642 5641 5639 5638 5637 5636 5634 5633 5630
5662 5655 5651 5647 5644 5642 5638 5632 5627 5624 5628 5628 5627 5626 5627 5627 5627 5628 5632 5635 5638 5640 5642 5644 5647 5647 5647 5647 5648 5647 5646 5643 5641 5639 5638 5637 5636 5634 5631 5630 5629 5627 5625 5623
5672 5664 5656 5651 5646 5640 5641 5635 5633 5637 5636 5633 5631 5630 5628 5629 5631 5634 5636 5638 5641 5642 5644 5645 5646 5647 5648 5648 5648 5646 5642 5641 5639 5637 5635 5634 5632 5630 5628 5624 5621 5619 5617 5616
5675 5672 5667 5661 5657 5652 5648 5645 5642 5640 5639 5637 5635 5633 5632 5632 5635 5637 5639 5641 5642 5644 5645 5646 5647 5648 5650 5651 5648 5646 5643 5642 5640 5638 5635 5633 5631 5627 5623 5619 5616 5612 5610 5608
5683 5673 5667 5664 5662 5657 5652 5649 5646 5643 5642 5640 5638 5636 5636 5636 5638 5640 5642 5643 5645 5646 5647 5647 5649 5651 5652 5653 5652 5650 5648 5645 5644 5641 5638 5636 5633 5629 5623 5616 5612 5607 5603 5600
5692 5679 5675 5673 5671 5663 5659 5655 5652 5647 5645 5643 5641 5640 5639 5639 5641 5642 5644 5646 5646 5647 5650 5650 5651 5651 5653 5656 5656 5655 5653 5651 5648 5645 5641 5638 5634 5629 5623 5616 5608 5603 5598 5592
5700 5692 5687 5687 5686 5678 5673 5667 5659 5652 5648 5646 5644 5643 5644 5643 5643 5644 5646 5647 5648 5650 5652 5653 5654 5654 5657 5660 5660 5659 5656 5654 5653 5649 5644 5640 5636 5630 5626 5621 5612 5600 5596 5591